Find Starlink 2421

NORAD ID: 48098 Int'l Des: 2021-027 Owner: SPXS Country: US Constellation: starlink operational
LEOCIRCULAR

当前视图

正在加载3D地球...

About Starlink 2421

Starlink 2421 (NORAD 48098) is a starlink constellation satellite (v1.0) launched Apr 7, 2021 by SPXS of US. It operates in LEO, CIRCULAR orbit with a mass of 260.00 kg.

关于 Starlink 2421

正在加载描述...

即将过境

Passes for default location (London). Set your location on the main map for personalized predictions.

高度历史

Loading altitude history...

两行轨道根数

1 48098U 21027G 26168.94687479 .00000309 00000-0 21717-4 0 9992
2 48098 53.1606 48.5201 0001079 78.8884 281.2239 15.31704085288012
Epoch: Jun 17, 2026 • Age: 36 hours

当前状态

高度 470.6 km
速度 7.63 km/s
星下点 14.79°N, 17.17°W
发射日期 Apr 7, 2021
运行时间 5.1 years
类型 internet

技术详情

分类 Payload
质量 260.00 kg
干质量 248.00 kg
总质量 260.00 kg
长度 0.20 m
直径 2.80 m
跨度 9.00 m
形状 Box + pan
制造商 SPXS
平台类型 Starlink
阶段状态 In Orbit
所有者/国家 SPXS/US

Most Searched